Location: Newark
(25.0000°N, 73.5000°E)
Time: 00:45:20
(UTC+00:00)

X-37B - Pass Details

Date: 23 June 2021
Orbit: 383 x 392 km, 45.0° (Epoch: 01 July)

Event Time Altitude Azimuth Distance (km) Brightness Sun altitude
Exits shadow 22:25:05 34° 356° (N) 649 2.0 -22.1°
Maximum altitude 22:25:53 43° 38° (NE) 549 1.7 -21.9°
Drops below altitude 10° 22:28:55 10° 112° (ESE) 1,400 3.7 -21.4°
Sets 22:31:02 0° 119° (ESE) 2,253 4.7 -21.1°
